Regional Weather Roundup
Issued by NWS Albany, NY

Home | Current Version | Previous Version | Graphics & Text | Print | Product List | Glossary Off
Versions: 1 2 3 4 5 6 7 8 9 10 11 12 13 14 15 16 17 18 19 20 21 22 23 24 25 26 27 28

000
ASUS41 KALY 291810
RWRALY

NEW YORK STATE HOURLY WEATHER ROUNDUP
NATIONAL WEATHER SERVICE ALBANY NY
200 PM EDT SUN MAY 29 2016

NOTE: "FAIR" INDICATES FEW OR NO CLOUDS BELOW 12,000 FEET WITH NO
SIGNIFICANT WEATHER AND/OR NO OBSTRUCTIONS TO VISIBILITY.

NYZ032-033-038>043-046>054-057>066-NYZ062>081-082-084-291900-
EAST


CITY           SKY/WX    TMP DP  RH WIND       PRES   REMARKS
ALBANY         CLOUDY    86  67  52 S12       30.04F
GLENS FALLS    PTSUNNY   88  66  48 S12       30.02F HX  90
POUGHKEEPSIE   MOSUNNY   90  66  45 S14       30.05F HX  92
NEWBURGH       MOSUNNY   88  70  55 SW12      30.09F HX  92
MONTGOMERY     MOSUNNY   90  71  53 SW14      30.06F HX  96
WHITE PLAINS   MOSUNNY   84  60  44 S10G17    30.11F
ISLIP          PTSUNNY   78  61  55 S9        30.14S
NEW YORK CITY  PTSUNNY   85  66  53 SE14      30.11S
CENTRAL PARK   SUNNY     85  61  44 SW8       30.13F
$$

NYZ005>009-017-018-044>046-055-056-291900-
CENTRAL


CITY           SKY/WX    TMP DP  RH WIND       PRES   REMARKS
FULTON         CLOUDY    87  67  51 CALM      30.03F HX  90
SYRACUSE       PTSUNNY   79  66  64 E21       30.02F THUNDER
ROME           LGT RAIN  70  67  90 CALM      30.08F
ELMIRA         MOSUNNY   90  64  42 S12       30.02F HX  91
BINGHAMTON     MOSUNNY   84  63  49 SW12      30.09F
MONTICELLO     MOSUNNY   86  68  54 S12G18    30.13S
$$

NYZ026>034-041>043-087-291900-
NORTH


CITY           SKY/WX    TMP DP  RH WIND       PRES   REMARKS
WATERTOWN      CLOUDY    82  66  58 W10       30.02F
FORT DRUM      NOT AVBL
MASSENA        MOSUNNY   83  65  54 NE6       30.01F
SARANAC LAKE   CLOUDY    79  60  52 S14G30    30.06S
PLATTSBURGH    CLOUDY    79  65  62 NE9       30.01F
$$

NYZ001>004-010>016-019>021-085-291900-
WEST


CITY           SKY/WX    TMP DP  RH WIND       PRES   REMARKS
NIAGARA FALLS  PTSUNNY   86  64  47 SW13      30.03F
BUFFALO        CLOUDY    83  63  50 SW7       30.03F
DUNKIRK        MOSUNNY   77  64  64 NW9       30.05F
WELLSVILLE     CLOUDY    71  65  81 W8        30.14S
ROCHESTER      CLOUDY    87  65  47 CALM      30.03F
PENN YAN       CLOUDY    81  67  62 VRB3      30.05F
$$

             KEY
       WCI = WIND CHILL INDEX
       VSB = VISIBILITY
       HX  = HEAT INDEX
$$




USA.gov is the U.S. government's official web portal to all federal, state and local government web resources and services.